Terug naar catalogus

STARLINK-2542

ActiefCommunicatieVLEO
NORAD 48292·PAYLOAD·🇺🇸 United States

Gelanceerd Apr 29, 2021 vanaf Cape Canaveral Space Force Station

Loading…

Volgende Passages (komende 24 uur)

TLE

VersSource: CelesTrak SupGP

Epoch: Sep 14, 2026, 21:56 UTC

1 48292C 21036S   26257.91437500  .00050345  00000+0  16187-2 0  2576
2 48292  53.1581 274.6394 0001291  85.7674 322.2127 15.31681795    11

Volg STARLINK-2542 in realtime met AllMySat

Download on the App Store